Hourly Data Report for October 03, 2013

All times are specified in Local Standard Time (LST). Add 1 hour to adjust for Daylight Saving Time where and when it is observed.

FORT LIARD
NORTHWEST TERRITORIES

60°14'00.000" N
123°28'00.000" W
213.40 m
2201579
71497
WJL

Download Data

Hourly Data (October 2013)
Hourly Data Report for October 3, 2013
Temp Definition
°C
Dew Point Temp Definition
°C
Rel Hum Definition
%
Wind Dir Definition
10's deg

Wind Spd Definition
km/h
Visibility Definition
km
Stn Press Definition
kPa
Hmdx Definition


Wind Chill Definition


Weather Definition


TIME
00:00 1.3 0.7 96 22 9   99.60     LegendNANA
01:00 0.4 -0.1 96 21 7   99.61     LegendNANA
02:00 1.2 0.8 97 24 9   99.62     LegendNANA
03:00 0.8 0.4 97 23 9   99.64     LegendNANA
04:00 1.4 1.0 97 22 11   99.66     LegendNANA
05:00 1.1 0.7 97 22 11   99.68     LegendNANA
06:00 1.1 0.7 97 23 9   99.65     LegendNANA
07:00 1.1 0.7 97 22 11   99.66     LegendNANA
08:00 0.9 0.5 97 24 7   99.67     LegendNANA
09:00 1.0 0.5 96 23 11   99.67     LegendNANA
10:00 1.6 1.0 96 24 7   99.67     LegendNANA
11:00 2.6 1.6 93 24 9   99.64     LegendNANA
12:00 4.7 3.0 89 21 15   99.61     LegendNANA
13:00 7.0 3.7 79 22 13   99.56     LegendNANA
14:00 9.3 4.1 70 22 9   99.51     LegendNANA
15:00 10.4 4.6 67 21 6   99.45     LegendNANA
16:00 11.8 4.6 61 21 6   99.37     LegendNANA
17:00 10.4 4.5 67 23 6   99.30     LegendNANA
18:00 8.4 4.7 78   0   99.26     LegendNANA
19:00 6.3 4.7 89   0   99.23     LegendNANA
20:00 4.8 3.9 94 23 6   99.16     LegendNANA
21:00 4.2 2.7 90   0   99.11     LegendNANA
22:00 3.9 2.9 93 24 4   99.06     LegendNANA
23:00 3.7 2.5 92 21 11   98.96     LegendNANA

Notes on Data Quality.

Legend

  • E = Estimated
  • M = Missing
  • NA = Not Available
  • ‡ = Partner data that is not subject to review by the National Climate Archives
Date modified: